sat.trackr.live / text

‹ back to catalog

STARLINK-33672

NORAD 63326 · 2025-057V

PAYLOAD ACTIVE UNKNOWN

§ Identity

Operator
Country
US
Launch date
2025-03-18
Launch site
AFETR
Launch vehicle
Mass (kg)
RCS (m²)

Purposes: comms

External: N2YO · Heavens-Above · Gunter

§ Orbital elements

Epoch: 2026-09-20T13:31:47.856576Z

Period
94.27 min
Inclination
43.0014°
Eccentricity
0.0001088
Mean motion
15.27589692 rev/d
Perigee alt
482.3 km
Apogee alt
483.8 km
Semi-major
6,861.2 km
B*
4.4019e-4
RAAN
10.0474°
Arg perigee
273.3940°
Mean anomaly
86.6787°
Rev number
8,558

§ Raw data

STARLINK-336721 63326U 25057V   26263.56374834  .00011874  00000+0  44019-3 0  99992 63326  43.0014  10.0474 0001088 273.3940  86.6787 15.27589692 85587

JSON: /api/v1/satellites/63326 · /tle

For live sub-satellite position, see the globe view (requires WebGL).

§ Visibility from observer

Set your observer location to see the next 7 days of passes ≥ 10°. The values pass through the URL so the page stays shareable.

No JS? Fill the form by hand. The geolocation button needs JavaScript.